Flag for Lebanon Weather past 2 weeks in Beirut, Lebanon

Now
61 °F

Passing clouds.


Feels Like: 61 °F
Forecast: 57 / 62 °F
Wind: 2 mph from East

Location: Beirut Airport

Current Time: Jan 27, 2015 at 9:50:03 PM

Latest Report: Jan 27, 2015 at 9:00 PM


Visibility: N/A

Pressure: 30.01 "Hg

Humidity: 45%

Dew point: 39 °F

Location of BeirutLocation

Historic Weather in Beirut — Graph

°F

Beirut temperature yesterday

Maximum temperature yesterday: 72 °F (at 12:00 PM)
Minimum temperature yesterday: 55 °F (at 3:00 AM)
Average temperature yesterday: 62 °F

Past Weeks' High & Low Weather Summary

 TemperatureHumidityPressure
High72 °F (Jan 24, 2:00 PM)88% (Jan 15, 3:00 AM)30.36 "Hg (Jan 15, 3:00 AM)
Low48 °F (Jan 13, 4:00 AM)19% (Jan 26, 12:00 PM)29.95 "Hg (Jan 25, 4:00 AM)
Average59 °F60%30.16 "Hg
* Reported Jan 12 8:00 PM — Jan 27 8:00 PM, Beirut, Weather by CustomWeather, © 2014

Note: Actual official high and low records may vary slightly from our data, if they occured in-between our weather recording intervals... More about our weather records

Advertising

Beirut weather history for previous 24 hours

 ConditionsComfort  
Time TempWeatherWind HumidityBarometerVisibility
8:00 PM
Jan 27
61 °FClear.5 mph45%30.01 "Hg10 mi
7:00 PM61 °FPassing clouds.7 mph52%30.01 "Hg5 mi
6:00 PM61 °FPassing clouds.2 mph52%30.01 "Hg5 mi
5:00 PM61 °FPartly sunny.2 mph45%30.01 "Hg5 mi
4:00 PM64 °FPartly sunny.5 mph40%30.04 "Hg5 mi
3:00 PM64 °FPartly sunny.5 mph43%30.01 "Hg5 mi
2:00 PM64 °FPartly sunny.3 mph43%30.04 "Hg5 mi
1:00 PM64 °FScattered clouds.5 mph46%30.07 "Hg5 mi
12:00 PM64 °FScattered clouds.5 mph46%30.07 "Hg5 mi
11:00 AM64 °FScattered clouds.2 mph43%30.09 "Hg5 mi
10:00 AM63 °FScattered clouds.2 mph39%30.12 "Hg5 mi
9:00 AM61 °FScattered clouds.2 mph39%30.12 "Hg5 mi
8:00 AM55 °FScattered clouds.2 mph44%30.12 "Hg5 mi
7:00 AM57 °FScattered clouds.5 mph39%30.12 "Hg5 mi
6:00 AM57 °FPassing clouds.5 mph36%30.12 "Hg5 mi
5:00 AM57 °FClear.5 mph39%30.12 "Hg5 mi
4:00 AM57 °FClear.6 mph44%30.12 "Hg5 mi
3:00 AM57 °FClear.6 mph44%30.12 "Hg5 mi
2:00 AM57 °FClear.6 mph44%30.12 "Hg5 mi
1:00 AM57 °FClear.6 mph44%30.12 "Hg5 mi
12:00 AM57 °FPassing clouds.6 mph44%30.15 "HgN/A
11:00 PM
Jan 26
59 °FPassing clouds.6 mph45%30.15 "Hg5 mi
10:00 PM59 °FPassing clouds.6 mph45%30.15 "HgN/A
9:00 PM59 °FPassing clouds.6 mph48%30.15 "HgN/A
Weather by CustomWeather, © 2014

See weather overviewHow to use our weather pages